Terminal Aerodrome Forecast
Issued by NWS

Home | Current Version | Previous Version | Graphics & Text | Print | Product List | Glossary On
Versions: 1 2 3 4 5 6 7 8 9 10 11 12 13 14 15 16 17 18 19 20 21 22 23 24 25
416
FTUS43 KTOP 222038 AAA
TAFFOE
TAF AMD
KFOE 222038Z 2221/2318 11011G23KT P6SM BKN070
     FM230000 14012G21KT P6SM OVC035
     FM230600 14011G20KT P6SM -DZ OVC025
     FM230800 14012G21KT P6SM -DZ OVC013
     FM231300 14012G23KT P6SM OVC011
     FM231700 17018G27KT P6SM BKN020=

USA.gov is the U.S. government's official web portal to all federal, state and local government web resources and services.